Time,TemperatureF,DewpointF,PressureIn,WindDirection,WindDirectionDegrees,WindSpeedMPH,WindSpeedGustMPH,Humidity,HourlyPrecipIn,Conditions,Clouds,dailyrainin,SoftwareType,DateUTC
2013-10-08 00:01:00,49.7,43.1,29.94,SSE,154,4.0,5.0,78,0.00,,,0.00,Wunderground v.1.15,2013-10-08 05:01:00,
2013-10-08 00:06:00,49.4,42.8,29.94,SSE,155,4.0,4.0,78,0.00,,,0.00,Wunderground v.1.15,2013-10-08 05:06:00,
2013-10-08 00:12:00,49.1,42.9,29.93,SSE,161,5.0,5.0,79,0.00,,,0.00,Wunderground v.1.15,2013-10-08 05:12:00,
2013-10-08 00:18:00,48.9,42.7,29.93,SSE,159,5.0,5.0,79,0.00,,,0.00,Wunderground v.1.15,2013-10-08 05:18:00,
2013-10-08 00:23:00,48.6,42.7,29.93,SSE,155,4.0,5.0,80,0.00,,,0.00,Wunderground v.1.15,2013-10-08 05:23:00,
2013-10-08 00:29:00,48.6,42.7,29.93,SSE,159,5.0,5.0,80,0.00,,,0.00,Wunderground v.1.15,2013-10-08 05:29:00,
2013-10-08 00:35:00,48.5,42.6,29.93,SSE,159,4.0,5.0,80,0.00,,,0.00,Wunderground v.1.15,2013-10-08 05:35:00,
2013-10-08 00:41:00,48.4,42.5,29.93,SSE,153,3.0,6.0,80,0.00,,,0.00,Wunderground v.1.15,2013-10-08 05:41:00,
2013-10-08 00:46:00,48.4,42.5,29.93,SSE,148,3.0,4.0,80,0.00,,,0.00,Wunderground v.1.15,2013-10-08 05:46:00,
2013-10-08 00:52:00,48.3,42.4,29.93,SE,146,3.0,4.0,80,0.00,,,0.00,Wunderground v.1.15,2013-10-08 05:52:00,
2013-10-08 00:58:00,48.3,42.4,29.93,SE,142,4.0,4.0,80,0.00,,,0.00,Wunderground v.1.15,2013-10-08 05:58:00,
2013-10-08 01:04:00,48.4,42.5,29.93,SE,145,4.0,7.0,80,0.00,,,0.00,Wunderground v.1.15,2013-10-08 06:04:00,
2013-10-08 01:09:00,48.3,42.4,29.93,SE,143,5.0,5.0,80,0.00,,,0.00,Wunderground v.1.15,2013-10-08 06:09:00,
2013-10-08 01:15:00,48.3,42.4,29.93,SE,146,4.0,5.0,80,0.00,,,0.00,Wunderground v.1.15,2013-10-08 06:15:00,
2013-10-08 01:20:00,48.2,42.3,29.93,SSE,147,4.0,4.0,80,0.00,,,0.00,Wunderground v.1.15,2013-10-08 06:20:00,
2013-10-08 01:26:00,48.1,42.2,29.93,SSE,148,4.0,4.0,80,0.00,,,0.00,Wunderground v.1.15,2013-10-08 06:26:00,
2013-10-08 01:32:00,47.9,42.3,29.94,SE,146,4.0,4.0,81,0.00,,,0.00,Wunderground v.1.15,2013-10-08 06:32:00,
2013-10-08 01:38:00,47.9,42.3,29.94,SE,140,5.0,5.0,81,0.00,,,0.00,Wunderground v.1.15,2013-10-08 06:38:00,
2013-10-08 01:43:00,48.1,42.5,29.93,SSE,147,4.0,5.0,81,0.00,,,0.00,Wunderground v.1.15,2013-10-08 06:43:00,
2013-10-08 01:49:00,48.3,42.4,29.93,SE,140,5.0,5.0,80,0.00,,,0.00,Wunderground v.1.15,2013-10-08 06:49:00,
2013-10-08 01:55:00,48.5,42.6,29.93,SE,136,3.0,5.0,80,0.00,,,0.00,Wunderground v.1.15,2013-10-08 06:55:00,
2013-10-08 02:01:00,48.8,42.6,29.93,SE,139,5.0,7.0,79,0.00,,,0.00,Wunderground v.1.15,2013-10-08 07:01:00,
2013-10-08 02:07:00,49.0,42.8,29.92,SE,138,7.0,7.0,79,0.00,,,0.00,Wunderground v.1.15,2013-10-08 07:07:00,
2013-10-08 02:12:00,49.1,42.5,29.93,SE,130,7.0,9.0,78,0.00,,,0.00,Wunderground v.1.15,2013-10-08 07:12:00,
2013-10-08 02:17:00,49.1,42.5,29.93,SE,132,4.0,7.0,78,0.00,,,0.00,Wunderground v.1.15,2013-10-08 07:17:00,
2013-10-08 02:22:00,48.9,42.3,29.93,SSE,147,8.0,8.0,78,0.00,,,0.00,Wunderground v.1.15,2013-10-08 07:22:00,
2013-10-08 02:27:00,48.7,42.1,29.92,SSE,150,4.0,5.0,78,0.00,,,0.00,Wunderground v.1.15,2013-10-08 07:27:00,
2013-10-08 02:31:00,48.4,41.9,29.93,SE,142,4.0,7.0,78,0.00,,,0.00,Wunderground v.1.15,2013-10-08 07:31:00,
2013-10-08 02:36:00,48.0,41.8,29.93,SE,145,4.0,5.0,79,0.00,,,0.00,Wunderground v.1.15,2013-10-08 07:36:00,
2013-10-08 02:41:00,47.7,41.8,29.93,SE,141,5.0,7.0,80,0.00,,,0.00,Wunderground v.1.15,2013-10-08 07:41:00,
2013-10-08 02:46:00,47.4,41.5,29.93,SSE,153,4.0,5.0,80,0.00,,,0.00,Wunderground v.1.15,2013-10-08 07:46:00,
2013-10-08 02:51:00,47.2,41.7,29.92,SSE,155,7.0,7.0,81,0.00,,,0.00,Wunderground v.1.15,2013-10-08 07:51:00,
2013-10-08 02:56:00,46.9,41.4,29.92,SSE,153,5.0,5.0,81,0.00,,,0.00,Wunderground v.1.15,2013-10-08 07:56:00,
2013-10-08 03:02:00,46.6,41.4,29.92,SSE,153,5.0,7.0,82,0.00,,,0.00,Wunderground v.1.15,2013-10-08 08:02:00,
2013-10-08 03:07:00,46.3,41.4,29.92,SSE,153,5.0,8.0,83,0.00,,,0.00,Wunderground v.1.15,2013-10-08 08:07:00,
2013-10-08 03:12:00,46.2,41.3,29.92,SSE,150,4.0,8.0,83,0.00,,,0.00,Wunderground v.1.15,2013-10-08 08:12:00,
2013-10-08 03:17:00,46.1,41.5,29.92,SE,138,4.0,6.0,84,0.00,,,0.00,Wunderground v.1.15,2013-10-08 08:17:00,
2013-10-08 03:22:00,46.0,41.4,29.91,SE,143,6.0,9.0,84,0.00,,,0.00,Wunderground v.1.15,2013-10-08 08:22:00,
2013-10-08 03:27:00,46.0,41.4,29.91,SE,142,4.0,7.0,84,0.00,,,0.00,Wunderground v.1.15,2013-10-08 08:27:00,
2013-10-08 03:32:00,46.0,41.4,29.91,SSE,160,8.0,8.0,84,0.00,,,0.00,Wunderground v.1.15,2013-10-08 08:32:00,
2013-10-08 03:37:00,46.0,41.4,29.91,SSE,149,5.0,7.0,84,0.00,,,0.00,Wunderground v.1.15,2013-10-08 08:37:00,
2013-10-08 03:42:00,46.0,41.4,29.91,SSE,165,6.0,8.0,84,0.00,,,0.00,Wunderground v.1.15,2013-10-08 08:42:00,
2013-10-08 03:47:00,45.8,41.2,29.91,SSE,147,4.0,7.0,84,0.00,,,0.00,Wunderground v.1.15,2013-10-08 08:47:00,
2013-10-08 03:52:00,45.6,41.4,29.91,SSE,149,5.0,7.0,85,0.00,,,0.00,Wunderground v.1.15,2013-10-08 08:52:00,
2013-10-08 03:57:00,45.5,41.3,29.91,SE,142,5.0,6.0,85,0.00,,,0.00,Wunderground v.1.15,2013-10-08 08:57:00,
2013-10-08 04:02:00,45.6,41.4,29.90,SE,144,6.0,7.0,85,0.00,,,0.00,Wunderground v.1.15,2013-10-08 09:02:00,
2013-10-08 04:07:00,45.8,41.5,29.90,SE,144,6.0,8.0,85,0.00,,,0.00,Wunderground v.1.15,2013-10-08 09:07:00,
2013-10-08 04:12:00,45.9,41.6,29.90,SE,141,8.0,9.0,85,0.00,,,0.00,Wunderground v.1.15,2013-10-08 09:12:00,
2013-10-08 04:17:00,46.1,41.8,29.91,SE,136,7.0,9.0,85,0.00,,,0.00,Wunderground v.1.15,2013-10-08 09:17:00,
2013-10-08 04:22:00,46.2,41.6,29.91,SE,142,5.0,9.0,84,0.00,,,0.00,Wunderground v.1.15,2013-10-08 09:22:00,
2013-10-08 04:27:00,46.3,41.7,29.91,SSE,161,6.0,7.0,84,0.00,,,0.00,Wunderground v.1.15,2013-10-08 09:27:00,
2013-10-08 04:32:00,46.1,41.5,29.91,SSE,154,7.0,8.0,84,0.00,,,0.00,Wunderground v.1.15,2013-10-08 09:32:00,
2013-10-08 04:37:00,46.0,41.4,29.91,SE,146,3.0,7.0,84,0.00,,,0.00,Wunderground v.1.15,2013-10-08 09:37:00,
2013-10-08 04:42:00,45.8,41.2,29.91,SSE,149,5.0,7.0,84,0.00,,,0.00,Wunderground v.1.15,2013-10-08 09:42:00,
2013-10-08 04:47:00,45.6,41.4,29.91,SSE,157,6.0,8.0,85,0.00,,,0.00,Wunderground v.1.15,2013-10-08 09:47:00,
2013-10-08 04:52:00,45.5,41.3,29.91,SSE,152,7.0,8.0,85,0.00,,,0.00,Wunderground v.1.15,2013-10-08 09:52:00,
2013-10-08 04:57:00,45.4,41.2,29.91,SSE,153,5.0,7.0,85,0.00,,,0.00,Wunderground v.1.15,2013-10-08 09:57:00,
2013-10-08 05:03:00,45.2,41.0,29.91,SSE,151,5.0,9.0,85,0.00,,,0.00,Wunderground v.1.15,2013-10-08 10:03:00,
2013-10-08 05:08:00,45.2,41.3,29.91,SSE,154,6.0,7.0,86,0.00,,,0.00,Wunderground v.1.15,2013-10-08 10:08:00,
2013-10-08 05:13:00,45.1,41.2,29.91,SSE,155,6.0,9.0,86,0.00,,,0.00,Wunderground v.1.15,2013-10-08 10:13:00,
2013-10-08 05:18:00,45.2,41.3,29.91,SSE,153,4.0,8.0,86,0.00,,,0.00,Wunderground v.1.15,2013-10-08 10:18:00,
2013-10-08 05:23:00,45.2,41.3,29.91,SE,146,5.0,8.0,86,0.00,,,0.00,Wunderground v.1.15,2013-10-08 10:23:00,
2013-10-08 05:28:00,45.3,41.4,29.90,SSE,153,9.0,9.0,86,0.00,,,0.00,Wunderground v.1.15,2013-10-08 10:28:00,
2013-10-08 05:33:00,45.4,41.2,29.91,SSE,148,6.0,9.0,85,0.00,,,0.00,Wunderground v.1.15,2013-10-08 10:33:00,
2013-10-08 05:38:00,45.4,41.2,29.90,SE,144,5.0,8.0,85,0.00,,,0.00,Wunderground v.1.15,2013-10-08 10:38:00,
2013-10-08 05:43:00,45.4,41.2,29.90,SSE,150,5.0,8.0,85,0.00,,,0.00,Wunderground v.1.15,2013-10-08 10:43:00,
2013-10-08 05:48:00,45.3,41.1,29.90,SSE,159,6.0,7.0,85,0.00,,,0.00,Wunderground v.1.15,2013-10-08 10:48:00,
2013-10-08 05:53:00,45.1,40.9,29.90,SSE,150,4.0,8.0,85,0.00,,,0.00,Wunderground v.1.15,2013-10-08 10:53:00,
2013-10-08 05:58:00,44.9,40.7,29.91,SSE,161,7.0,7.0,85,0.00,,,0.00,Wunderground v.1.15,2013-10-08 10:58:00,
2013-10-08 06:03:00,44.7,40.8,29.91,SSE,149,6.0,8.0,86,0.00,,,0.00,Wunderground v.1.15,2013-10-08 11:03:00,
2013-10-08 06:08:00,44.5,40.6,29.91,SE,136,7.0,8.0,86,0.00,,,0.00,Wunderground v.1.15,2013-10-08 11:08:00,
2013-10-08 06:13:00,44.4,40.8,29.90,SSE,150,5.0,9.0,87,0.00,,,0.00,Wunderground v.1.15,2013-10-08 11:13:00,
2013-10-08 06:18:00,44.4,40.8,29.91,SE,146,8.0,8.0,87,0.00,,,0.00,Wunderground v.1.15,2013-10-08 11:18:00,
2013-10-08 06:23:00,44.3,40.7,29.91,SSE,147,5.0,8.0,87,0.00,,,0.00,Wunderground v.1.15,2013-10-08 11:23:00,
2013-10-08 06:28:00,44.2,40.6,29.91,SSE,154,9.0,9.0,87,0.00,,,0.00,Wunderground v.1.15,2013-10-08 11:28:00,
2013-10-08 06:33:00,44.2,40.6,29.91,SSE,153,5.0,9.0,87,0.00,,,0.00,Wunderground v.1.15,2013-10-08 11:33:00,
2013-10-08 06:38:00,44.1,40.5,29.91,SSE,154,6.0,8.0,87,0.00,,,0.00,Wunderground v.1.15,2013-10-08 11:38:00,
2013-10-08 06:43:00,44.0,40.7,29.91,SSE,153,7.0,8.0,88,0.00,,,0.00,Wunderground v.1.15,2013-10-08 11:43:00,
2013-10-08 06:48:00,44.0,40.7,29.91,SE,146,5.0,8.0,88,0.00,,,0.00,Wunderground v.1.15,2013-10-08 11:48:00,
2013-10-08 06:53:00,44.2,40.9,29.91,SSE,149,4.0,9.0,88,0.00,,,0.00,Wunderground v.1.15,2013-10-08 11:53:00,
2013-10-08 06:58:00,44.3,40.7,29.91,SSE,147,8.0,8.0,87,0.00,,,0.00,Wunderground v.1.15,2013-10-08 11:58:00,
2013-10-08 07:03:00,44.4,40.8,29.91,SSE,161,6.0,9.0,87,0.00,,,0.00,Wunderground v.1.15,2013-10-08 12:03:00,
2013-10-08 07:08:00,44.4,40.8,29.91,SSE,166,9.0,9.0,87,0.00,,,0.00,Wunderground v.1.15,2013-10-08 12:08:00,
2013-10-08 07:13:00,44.3,40.7,29.91,SSE,147,6.0,9.0,87,0.00,,,0.00,Wunderground v.1.15,2013-10-08 12:13:00,
2013-10-08 07:18:00,44.3,40.7,29.91,SSE,162,7.0,8.0,87,0.00,,,0.00,Wunderground v.1.15,2013-10-08 12:18:00,
2013-10-08 07:25:00,44.4,40.8,29.91,SSE,159,7.0,7.0,87,0.00,,,0.00,Wunderground v.1.15,2013-10-08 12:25:00,
2013-10-08 07:30:00,44.5,41.2,29.91,SSE,154,6.0,9.0,88,0.00,,,0.00,Wunderground v.1.15,2013-10-08 12:30:00,
2013-10-08 07:35:00,44.6,41.0,29.91,SSE,161,9.0,9.0,87,0.00,,,0.00,Wunderground v.1.15,2013-10-08 12:35:00,
2013-10-08 07:40:00,44.9,41.3,29.90,SSE,149,5.0,10.0,87,0.00,,,0.00,Wunderground v.1.15,2013-10-08 12:40:00,
2013-10-08 07:45:00,45.1,41.5,29.90,SSE,151,5.0,9.0,87,0.00,,,0.00,Wunderground v.1.15,2013-10-08 12:45:00,
2013-10-08 07:50:00,45.3,41.7,29.90,South,169,9.0,10.0,87,0.00,,,0.00,Wunderground v.1.15,2013-10-08 12:50:00,
2013-10-08 07:56:00,45.6,41.7,29.90,SSE,165,7.0,8.0,86,0.00,,,0.00,Wunderground v.1.15,2013-10-08 12:56:00,
2013-10-08 08:01:00,45.8,41.9,29.90,SSE,162,7.0,9.0,86,0.00,,,0.00,Wunderground v.1.15,2013-10-08 13:01:00,
2013-10-08 08:06:00,46.1,42.1,29.91,SSE,159,7.0,10.0,86,0.00,,,0.00,Wunderground v.1.15,2013-10-08 13:06:00,
2013-10-08 08:11:00,46.4,42.4,29.90,SSE,164,7.0,9.0,86,0.00,,,0.00,Wunderground v.1.15,2013-10-08 13:11:00,
2013-10-08 08:16:00,46.7,42.7,29.90,SSE,159,8.0,9.0,86,0.00,,,0.00,Wunderground v.1.15,2013-10-08 13:16:00,
2013-10-08 08:21:00,47.3,43.3,29.90,SSE,161,7.0,9.0,86,0.00,,,0.00,Wunderground v.1.15,2013-10-08 13:21:00,
2013-10-08 08:26:00,47.9,43.9,29.90,SSE,163,8.0,10.0,86,0.00,,,0.00,Wunderground v.1.15,2013-10-08 13:26:00,
2013-10-08 08:31:00,48.7,44.4,29.90,South,175,4.0,10.0,85,0.00,,,0.00,Wunderground v.1.15,2013-10-08 13:31:00,
2013-10-08 08:36:00,49.4,44.8,29.90,South,171,7.0,11.0,84,0.00,,,0.00,Wunderground v.1.15,2013-10-08 13:36:00,
2013-10-08 08:41:00,50.3,44.7,29.90,South,175,9.0,13.0,81,0.00,,,0.00,Wunderground v.1.15,2013-10-08 13:41:00,
2013-10-08 08:46:00,51.1,45.1,29.90,South,181,8.0,13.0,80,0.00,,,0.00,Wunderground v.1.15,2013-10-08 13:46:00,
2013-10-08 08:51:00,51.9,45.6,29.90,South,173,7.0,11.0,79,0.00,,,0.00,Wunderground v.1.15,2013-10-08 13:51:00,
2013-10-08 08:56:00,52.8,45.8,29.90,South,186,10.0,13.0,77,0.00,,,0.00,Wunderground v.1.15,2013-10-08 13:56:00,
2013-10-08 09:01:00,53.9,45.8,29.90,SSW,196,12.0,15.0,74,0.00,,,0.00,Wunderground v.1.15,2013-10-08 14:01:00,
2013-10-08 09:06:00,55.1,45.5,29.90,South,189,12.0,20.0,70,0.00,,,0.00,Wunderground v.1.15,2013-10-08 14:06:00,
2013-10-08 09:11:00,56.1,45.7,29.90,SSW,194,10.0,18.0,68,0.00,,,0.00,Wunderground v.1.15,2013-10-08 14:11:00,
2013-10-08 09:16:00,57.1,45.4,29.90,South,185,17.0,21.0,65,0.00,,,0.00,Wunderground v.1.15,2013-10-08 14:16:00,
2013-10-08 09:21:00,57.9,45.0,29.90,SSW,198,12.0,22.0,62,0.00,,,0.00,Wunderground v.1.15,2013-10-08 14:21:00,
2013-10-08 09:26:00,58.6,45.2,29.90,South,186,15.0,22.0,61,0.00,,,0.00,Wunderground v.1.15,2013-10-08 14:26:00,
2013-10-08 09:31:00,59.1,45.2,29.90,South,173,17.0,26.0,60,0.00,,,0.00,Wunderground v.1.15,2013-10-08 14:31:00,
2013-10-08 09:36:00,59.7,45.3,29.90,SSW,200,11.0,26.0,59,0.00,,,0.00,Wunderground v.1.15,2013-10-08 14:36:00,
2013-10-08 09:41:00,60.2,45.4,29.89,SSW,200,18.0,26.0,58,0.00,,,0.00,Wunderground v.1.15,2013-10-08 14:41:00,
2013-10-08 09:46:00,60.6,45.3,29.89,SSW,200,17.0,26.0,57,0.00,,,0.00,Wunderground v.1.15,2013-10-08 14:46:00,
2013-10-08 09:51:00,61.2,44.9,29.89,SSW,203,15.0,23.0,55,0.00,,,0.00,Wunderground v.1.15,2013-10-08 14:51:00,
2013-10-08 09:56:00,61.7,45.4,29.89,SSW,205,18.0,23.0,55,0.00,,,0.00,Wunderground v.1.15,2013-10-08 14:56:00,
2013-10-08 10:01:00,62.2,44.9,29.88,SSW,198,14.0,22.0,53,0.00,,,0.00,Wunderground v.1.15,2013-10-08 15:01:00,
2013-10-08 10:06:00,62.6,44.7,29.88,SSW,194,20.0,25.0,52,0.00,,,0.00,Wunderground v.1.15,2013-10-08 15:06:00,
2013-10-08 10:11:00,63.2,45.3,29.88,South,190,19.0,28.0,52,0.00,,,0.00,Wunderground v.1.15,2013-10-08 15:11:00,
2013-10-08 10:16:00,63.9,45.4,29.88,SSW,198,11.0,28.0,51,0.00,,,0.00,Wunderground v.1.15,2013-10-08 15:16:00,
2013-10-08 10:21:00,64.5,44.9,29.88,SSW,200,20.0,26.0,49,0.00,,,0.00,Wunderground v.1.15,2013-10-08 15:21:00,
2013-10-08 10:26:00,64.9,45.3,29.88,SSW,198,15.0,28.0,49,0.00,,,0.00,Wunderground v.1.15,2013-10-08 15:26:00,
2013-10-08 10:32:00,65.4,45.2,29.88,South,186,13.0,24.0,48,0.00,,,0.00,Wunderground v.1.15,2013-10-08 15:32:00,
2013-10-08 10:37:00,65.9,45.1,29.87,South,184,13.0,18.0,47,0.00,,,0.00,Wunderground v.1.15,2013-10-08 15:37:00,
2013-10-08 10:42:00,66.6,45.2,29.87,SSW,207,23.0,28.0,46,0.00,,,0.00,Wunderground v.1.15,2013-10-08 15:42:00,
2013-10-08 10:47:00,67.0,45.5,29.87,South,184,17.0,22.0,46,0.00,,,0.00,Wunderground v.1.15,2013-10-08 15:47:00,
2013-10-08 10:52:00,67.2,45.1,29.87,South,186,19.0,24.0,45,0.00,,,0.00,Wunderground v.1.15,2013-10-08 15:52:00,
2013-10-08 10:57:00,67.1,45.0,29.87,SSW,195,17.0,22.0,45,0.00,,,0.00,Wunderground v.1.15,2013-10-08 15:57:00,
2013-10-08 11:02:00,66.6,44.6,29.87,SSW,201,17.0,27.0,45,0.00,,,0.00,Wunderground v.1.15,2013-10-08 16:02:00,
2013-10-08 11:07:00,66.4,44.4,29.87,SSW,209,18.0,25.0,45,0.00,,,0.00,Wunderground v.1.15,2013-10-08 16:07:00,
2013-10-08 11:12:00,66.5,45.1,29.87,SSW,201,13.0,25.0,46,0.00,,,0.00,Wunderground v.1.15,2013-10-08 16:12:00,
2013-10-08 11:17:00,67.5,45.4,29.87,SSW,200,15.0,24.0,45,0.00,,,0.00,Wunderground v.1.15,2013-10-08 16:17:00,
2013-10-08 11:23:00,68.5,45.7,29.86,SSW,198,25.0,25.0,44,0.00,,,0.00,Wunderground v.1.15,2013-10-08 16:23:00,
2013-10-08 11:28:00,69.6,46.1,29.86,South,173,21.0,26.0,43,0.00,,,0.00,Wunderground v.1.15,2013-10-08 16:28:00,
2013-10-08 11:33:00,70.3,46.1,29.86,SSW,201,20.0,30.0,42,0.00,,,0.00,Wunderground v.1.15,2013-10-08 16:33:00,
2013-10-08 11:38:00,71.1,46.2,29.86,SSW,205,21.0,21.0,41,0.00,,,0.00,Wunderground v.1.15,2013-10-08 16:38:00,
2013-10-08 11:43:00,71.6,46.6,29.86,SSW,210,12.0,22.0,41,0.00,,,0.00,Wunderground v.1.15,2013-10-08 16:43:00,
2013-10-08 11:48:00,71.8,46.2,29.86,SSW,196,20.0,24.0,40,0.00,,,0.00,Wunderground v.1.15,2013-10-08 16:48:00,
2013-10-08 11:53:00,72.1,45.8,29.85,SW,218,16.0,30.0,39,0.00,,,0.00,Wunderground v.1.15,2013-10-08 16:53:00,
2013-10-08 11:58:00,72.7,45.6,29.85,SSW,200,21.0,27.0,38,0.00,,,0.00,Wunderground v.1.15,2013-10-08 16:58:00,
2013-10-08 12:03:00,71.9,45.6,29.85,SSW,196,18.0,27.0,39,0.00,,,0.00,Wunderground v.1.15,2013-10-08 17:03:00,
2013-10-08 12:08:00,71.7,45.4,29.85,South,189,22.0,26.0,39,0.00,,,0.00,Wunderground v.1.15,2013-10-08 17:08:00,
2013-10-08 12:13:00,72.9,45.8,29.85,South,184,23.0,30.0,38,0.00,,,0.00,Wunderground v.1.15,2013-10-08 17:13:00,
2013-10-08 12:18:00,72.9,45.8,29.85,South,186,15.0,24.0,38,0.00,,,0.00,Wunderground v.1.15,2013-10-08 17:18:00,
2013-10-08 12:23:00,73.3,45.4,29.85,SSW,200,21.0,29.0,37,0.00,,,0.00,Wunderground v.1.15,2013-10-08 17:23:00,
2013-10-08 12:28:00,73.4,46.2,29.85,South,188,23.0,27.0,38,0.00,,,0.00,Wunderground v.1.15,2013-10-08 17:28:00,
2013-10-08 12:33:00,73.7,46.5,29.84,South,191,22.0,29.0,38,0.00,,,0.00,Wunderground v.1.15,2013-10-08 17:33:00,
2013-10-08 12:38:00,74.5,45.0,29.84,South,184,24.0,31.0,35,0.00,,,0.00,Wunderground v.1.15,2013-10-08 17:38:00,
2013-10-08 12:43:00,75.1,45.6,29.84,South,171,18.0,31.0,35,0.00,,,0.00,Wunderground v.1.15,2013-10-08 17:43:00,
2013-10-08 12:48:00,74.1,44.7,29.83,SSW,196,20.0,26.0,35,0.00,,,0.00,Wunderground v.1.15,2013-10-08 17:48:00,
2013-10-08 12:53:00,73.7,45.8,29.83,South,188,24.0,26.0,37,0.00,,,0.00,Wunderground v.1.15,2013-10-08 17:53:00,
2013-10-08 12:58:00,73.7,45.1,29.83,South,177,20.0,27.0,36,0.00,,,0.00,Wunderground v.1.15,2013-10-08 17:58:00,
2013-10-08 13:03:00,73.6,45.0,29.83,SSW,199,21.0,35.0,36,0.00,,,0.00,Wunderground v.1.15,2013-10-08 18:03:00,
2013-10-08 13:08:00,73.7,45.1,29.83,SSW,207,17.0,28.0,36,0.00,,,0.00,Wunderground v.1.15,2013-10-08 18:08:00,
2013-10-08 13:13:00,73.7,44.3,29.83,SSW,192,21.0,29.0,35,0.00,,,0.00,Wunderground v.1.15,2013-10-08 18:13:00,
2013-10-08 13:18:00,73.2,45.4,29.83,SSW,199,21.0,30.0,37,0.00,,,0.00,Wunderground v.1.15,2013-10-08 18:18:00,
2013-10-08 13:23:00,73.3,45.4,29.82,South,186,12.0,30.0,37,0.00,,,0.00,Wunderground v.1.15,2013-10-08 18:23:00,
2013-10-08 13:28:00,73.2,44.6,29.82,SSW,204,17.0,27.0,36,0.00,,,0.00,Wunderground v.1.15,2013-10-08 18:28:00,
2013-10-08 13:33:00,73.5,44.2,29.82,South,191,21.0,30.0,35,0.00,,,0.00,Wunderground v.1.15,2013-10-08 18:33:00,
2013-10-08 13:38:00,73.9,45.3,29.82,SW,217,18.0,29.0,36,0.00,,,0.00,Wunderground v.1.15,2013-10-08 18:38:00,
2013-10-08 13:43:00,74.5,45.0,29.82,South,174,22.0,29.0,35,0.00,,,0.00,Wunderground v.1.15,2013-10-08 18:43:00,
2013-10-08 13:48:00,74.7,45.2,29.82,SSW,208,17.0,23.0,35,0.00,,,0.00,Wunderground v.1.15,2013-10-08 18:48:00,
2013-10-08 13:53:00,74.4,45.0,29.81,SSW,194,21.0,30.0,35,0.00,,,0.00,Wunderground v.1.15,2013-10-08 18:53:00,
2013-10-08 13:58:00,74.0,44.6,29.81,South,169,17.0,23.0,35,0.00,,,0.00,Wunderground v.1.15,2013-10-08 18:58:00,
2013-10-08 14:03:00,73.9,44.5,29.81,SSW,200,16.0,29.0,35,0.00,,,0.00,Wunderground v.1.15,2013-10-08 19:03:00,
2013-10-08 14:08:00,74.0,44.6,29.81,South,188,18.0,26.0,35,0.00,,,0.00,Wunderground v.1.15,2013-10-08 19:08:00,
2013-10-08 14:13:00,74.5,44.3,29.80,SSW,196,22.0,26.0,34,0.00,,,0.00,Wunderground v.1.15,2013-10-08 19:13:00,
2013-10-08 14:18:00,74.9,43.8,29.80,South,179,24.0,33.0,33,0.00,,,0.00,Wunderground v.1.15,2013-10-08 19:18:00,
2013-10-08 14:24:00,75.5,45.2,29.80,SSE,157,24.0,33.0,34,0.00,,,0.00,Wunderground v.1.15,2013-10-08 19:24:00,
2013-10-08 14:29:00,76.5,43.6,29.80,South,170,19.0,33.0,31,0.00,,,0.00,Wunderground v.1.15,2013-10-08 19:29:00,
2013-10-08 14:34:00,77.5,44.5,29.79,SSW,194,13.0,33.0,31,0.00,,,0.00,Wunderground v.1.15,2013-10-08 19:34:00,
2013-10-08 14:39:00,77.7,44.6,29.79,South,178,21.0,28.0,31,0.00,,,0.00,Wunderground v.1.15,2013-10-08 19:39:00,
2013-10-08 14:44:00,78.3,44.3,29.79,SSE,155,29.0,38.0,30,0.00,,,0.00,Wunderground v.1.15,2013-10-08 19:44:00,
2013-10-08 14:49:00,78.4,44.4,29.79,South,184,21.0,29.0,30,0.00,,,0.00,Wunderground v.1.15,2013-10-08 19:49:00,
2013-10-08 14:54:00,78.4,45.3,29.78,SSW,195,23.0,29.0,31,0.00,,,0.00,Wunderground v.1.15,2013-10-08 19:54:00,
2013-10-08 14:59:00,78.2,44.2,29.79,SSW,198,17.0,30.0,30,0.00,,,0.00,Wunderground v.1.15,2013-10-08 19:59:00,
2013-10-08 15:04:00,78.3,44.3,29.79,South,184,25.0,33.0,30,0.00,,,0.00,Wunderground v.1.15,2013-10-08 20:04:00,
2013-10-08 15:09:00,77.8,43.9,29.79,South,182,22.0,31.0,30,0.00,,,0.00,Wunderground v.1.15,2013-10-08 20:09:00,
2013-10-08 15:14:00,77.6,44.6,29.79,South,189,21.0,31.0,31,0.00,,,0.00,Wunderground v.1.15,2013-10-08 20:14:00,
2013-10-08 15:19:00,77.7,44.6,29.79,SSW,192,29.0,31.0,31,0.00,,,0.00,Wunderground v.1.15,2013-10-08 20:19:00,
2013-10-08 15:24:00,77.5,43.6,29.78,South,178,35.0,35.0,30,0.00,,,0.00,Wunderground v.1.15,2013-10-08 20:24:00,
2013-10-08 15:30:00,76.9,44.0,29.79,SSW,202,23.0,28.0,31,0.00,,,0.00,Wunderground v.1.15,2013-10-08 20:30:00,
2013-10-08 15:35:00,77.0,44.0,29.79,South,180,28.0,31.0,31,0.00,,,0.00,Wunderground v.1.15,2013-10-08 20:35:00,
2013-10-08 15:40:00,76.9,44.0,29.79,SW,220,18.0,33.0,31,0.00,,,0.00,Wunderground v.1.15,2013-10-08 20:40:00,
2013-10-08 15:45:00,76.4,43.5,29.79,South,174,22.0,35.0,31,0.00,,,0.00,Wunderground v.1.15,2013-10-08 20:45:00,
2013-10-08 15:50:00,76.5,44.4,29.79,SSW,211,18.0,31.0,32,0.00,,,0.00,Wunderground v.1.15,2013-10-08 20:50:00,
2013-10-08 15:55:00,77.1,44.1,29.79,South,190,13.0,31.0,31,0.00,,,0.00,Wunderground v.1.15,2013-10-08 20:55:00,
2013-10-08 16:00:00,76.7,44.6,29.79,South,188,19.0,30.0,32,0.00,,,0.00,Wunderground v.1.15,2013-10-08 21:00:00,
2013-10-08 16:05:00,76.4,44.4,29.78,South,169,34.0,34.0,32,0.00,,,0.00,Wunderground v.1.15,2013-10-08 21:05:00,
2013-10-08 16:10:00,76.4,44.4,29.79,SSW,196,18.0,34.0,32,0.00,,,0.00,Wunderground v.1.15,2013-10-08 21:10:00,
2013-10-08 16:15:00,76.2,44.2,29.79,South,184,19.0,34.0,32,0.00,,,0.00,Wunderground v.1.15,2013-10-08 21:15:00,
2013-10-08 16:20:00,76.0,44.8,29.79,SSE,157,18.0,25.0,33,0.00,,,0.00,Wunderground v.1.15,2013-10-08 21:20:00,
2013-10-08 16:25:00,75.8,44.6,29.79,South,189,18.0,26.0,33,0.00,,,0.00,Wunderground v.1.15,2013-10-08 21:25:00,
2013-10-08 16:30:00,75.7,44.5,29.79,South,183,22.0,33.0,33,0.00,,,0.00,Wunderground v.1.15,2013-10-08 21:30:00,
2013-10-08 16:35:00,75.5,44.4,29.79,SSE,154,22.0,33.0,33,0.00,,,0.00,Wunderground v.1.15,2013-10-08 21:35:00,
2013-10-08 16:40:00,75.4,45.1,29.79,SSE,164,16.0,28.0,34,0.00,,,0.00,Wunderground v.1.15,2013-10-08 21:40:00,
2013-10-08 16:45:00,75.3,45.0,29.79,South,180,20.0,28.0,34,0.00,,,0.00,Wunderground v.1.15,2013-10-08 21:45:00,
2013-10-08 16:50:00,75.2,45.7,29.79,South,185,14.0,22.0,35,0.00,,,0.00,Wunderground v.1.15,2013-10-08 21:50:00,
2013-10-08 16:56:00,75.0,45.5,29.79,South,178,17.0,28.0,35,0.00,,,0.00,Wunderground v.1.15,2013-10-08 21:56:00,
2013-10-08 17:00:00,74.9,45.4,29.79,South,180,16.0,27.0,35,0.00,,,0.00,Wunderground v.1.15,2013-10-08 22:00:00,
2013-10-08 17:05:00,74.7,45.2,29.79,South,175,16.0,27.0,35,0.00,,,0.00,Wunderground v.1.15,2013-10-08 22:05:00,
2013-10-08 17:10:00,74.6,45.9,29.79,SSW,192,15.0,23.0,36,0.00,,,0.00,Wunderground v.1.15,2013-10-08 22:10:00,
2013-10-08 17:15:00,74.3,45.6,29.79,South,169,23.0,25.0,36,0.00,,,0.00,Wunderground v.1.15,2013-10-08 22:15:00,
2013-10-08 17:20:00,74.1,45.4,29.79,South,176,15.0,23.0,36,0.00,,,0.00,Wunderground v.1.15,2013-10-08 22:20:00,
2013-10-08 17:26:00,73.9,46.0,29.78,SSE,161,12.0,23.0,37,0.00,,,0.00,Wunderground v.1.15,2013-10-08 22:26:00,
2013-10-08 17:31:00,73.7,45.8,29.78,SSE,163,21.0,25.0,37,0.00,,,0.00,Wunderground v.1.15,2013-10-08 22:31:00,
2013-10-08 17:36:00,73.6,46.4,29.78,South,178,20.0,27.0,38,0.00,,,0.00,Wunderground v.1.15,2013-10-08 22:36:00,
2013-10-08 17:40:00,73.3,46.2,29.78,SSW,197,14.0,24.0,38,0.00,,,0.00,Wunderground v.1.15,2013-10-08 22:40:00,
2013-10-08 17:45:00,73.1,46.0,29.78,South,171,16.0,24.0,38,0.00,,,0.00,Wunderground v.1.15,2013-10-08 22:45:00,
2013-10-08 17:51:00,72.9,45.8,29.78,South,174,14.0,27.0,38,0.00,,,0.00,Wunderground v.1.15,2013-10-08 22:51:00,
2013-10-08 17:56:00,72.6,45.5,29.79,South,177,15.0,27.0,38,0.00,,,0.00,Wunderground v.1.15,2013-10-08 22:56:00,
2013-10-08 18:01:00,72.4,46.0,29.79,SSE,163,18.0,21.0,39,0.00,,,0.00,Wunderground v.1.15,2013-10-08 23:01:00,
2013-10-08 18:06:00,71.9,45.6,29.79,South,169,17.0,21.0,39,0.00,,,0.00,Wunderground v.1.15,2013-10-08 23:06:00,
2013-10-08 18:11:00,71.7,45.4,29.79,South,186,13.0,22.0,39,0.00,,,0.00,Wunderground v.1.15,2013-10-08 23:11:00,
2013-10-08 18:16:00,71.4,45.8,29.79,South,169,14.0,22.0,40,0.00,,,0.00,Wunderground v.1.15,2013-10-08 23:16:00,
2013-10-08 18:21:00,71.1,45.5,29.79,SSW,194,11.0,23.0,40,0.00,,,0.00,Wunderground v.1.15,2013-10-08 23:21:00,
2013-10-08 18:26:00,70.9,46.0,29.79,SSE,162,20.0,23.0,41,0.00,,,0.00,Wunderground v.1.15,2013-10-08 23:26:00,
2013-10-08 18:31:00,70.7,45.8,29.79,South,172,20.0,24.0,41,0.00,,,0.00,Wunderground v.1.15,2013-10-08 23:31:00,
2013-10-08 18:36:00,70.5,45.7,29.79,SSE,166,20.0,26.0,41,0.00,,,0.00,Wunderground v.1.15,2013-10-08 23:36:00,
2013-10-08 18:41:00,70.2,45.4,29.79,South,184,14.0,23.0,41,0.00,,,0.00,Wunderground v.1.15,2013-10-08 23:41:00,
2013-10-08 18:46:00,70.1,45.3,29.79,SSE,165,15.0,24.0,41,0.00,,,0.00,Wunderground v.1.15,2013-10-08 23:46:00,
2013-10-08 18:51:00,69.9,45.1,29.79,South,175,14.0,22.0,41,0.00,,,0.00,Wunderground v.1.15,2013-10-08 23:51:00,
2013-10-08 18:56:00,69.6,45.5,29.80,SSE,163,14.0,22.0,42,0.00,,,0.00,Wunderground v.1.15,2013-10-08 23:56:00,
2013-10-08 19:01:00,69.2,45.7,29.80,South,186,11.0,19.0,43,0.00,,,0.00,Wunderground v.1.15,2013-10-09 00:01:00,
2013-10-08 19:06:00,68.7,45.3,29.80,SSE,168,15.0,19.0,43,0.00,,,0.00,Wunderground v.1.15,2013-10-09 00:06:00,
2013-10-08 19:11:00,68.4,45.6,29.80,South,175,20.0,29.0,44,0.00,,,0.00,Wunderground v.1.15,2013-10-09 00:11:00,
2013-10-08 19:16:00,68.5,45.7,29.80,South,174,15.0,29.0,44,0.00,,,0.00,Wunderground v.1.15,2013-10-09 00:16:00,
2013-10-08 19:21:00,68.5,45.7,29.81,South,182,13.0,21.0,44,0.00,,,0.00,Wunderground v.1.15,2013-10-09 00:21:00,
2013-10-08 19:26:00,68.0,45.9,29.81,SSE,156,13.0,21.0,45,0.00,,,0.00,Wunderground v.1.15,2013-10-09 00:26:00,
2013-10-08 19:31:00,67.6,45.5,29.81,South,186,12.0,23.0,45,0.00,,,0.00,Wunderground v.1.15,2013-10-09 00:31:00,
2013-10-08 19:36:00,67.5,45.4,29.81,South,169,17.0,24.0,45,0.00,,,0.00,Wunderground v.1.15,2013-10-09 00:36:00,
2013-10-08 19:41:00,67.5,45.4,29.82,South,180,21.0,28.0,45,0.00,,,0.00,Wunderground v.1.15,2013-10-09 00:41:00,
2013-10-08 19:46:00,67.3,45.8,29.82,South,171,11.0,28.0,46,0.00,,,0.00,Wunderground v.1.15,2013-10-09 00:46:00,
2013-10-08 19:51:00,67.0,45.5,29.82,South,174,15.0,22.0,46,0.00,,,0.00,Wunderground v.1.15,2013-10-09 00:51:00,
2013-10-08 19:56:00,66.6,45.7,29.82,South,181,12.0,22.0,47,0.00,,,0.00,Wunderground v.1.15,2013-10-09 00:56:00,
2013-10-08 20:01:00,66.2,45.9,29.82,South,180,14.0,21.0,48,0.00,,,0.00,Wunderground v.1.15,2013-10-09 01:01:00,
2013-10-08 20:06:00,66.1,45.8,29.83,SSE,165,19.0,21.0,48,0.00,,,0.00,Wunderground v.1.15,2013-10-09 01:06:00,
2013-10-08 20:11:00,65.9,46.2,29.83,South,182,9.0,21.0,49,0.00,,,0.00,Wunderground v.1.15,2013-10-09 01:11:00,
2013-10-08 20:16:00,65.6,45.9,29.83,South,178,11.0,21.0,49,0.00,,,0.00,Wunderground v.1.15,2013-10-09 01:16:00,
2013-10-08 20:21:00,65.6,45.9,29.83,SSE,152,10.0,23.0,49,0.00,,,0.00,Wunderground v.1.15,2013-10-09 01:21:00,
2013-10-08 20:26:00,65.6,45.9,29.83,South,185,13.0,24.0,49,0.00,,,0.00,Wunderground v.1.15,2013-10-09 01:26:00,
2013-10-08 20:31:00,65.4,45.7,29.83,South,169,13.0,18.0,49,0.00,,,0.00,Wunderground v.1.15,2013-10-09 01:31:00,
2013-10-08 20:36:00,65.2,46.1,29.83,SSE,168,19.0,19.0,50,0.00,,,0.00,Wunderground v.1.15,2013-10-09 01:36:00,
2013-10-08 20:41:00,65.0,46.4,29.83,South,187,13.0,19.0,51,0.00,,,0.00,Wunderground v.1.15,2013-10-09 01:41:00,
2013-10-08 20:46:00,64.8,46.2,29.83,South,190,10.0,13.0,51,0.00,,,0.00,Wunderground v.1.15,2013-10-09 01:46:00,
2013-10-08 20:51:00,64.7,46.1,29.83,South,174,10.0,22.0,51,0.00,,,0.00,Wunderground v.1.15,2013-10-09 01:51:00,
2013-10-08 20:56:00,64.7,46.7,29.84,South,180,14.0,14.0,52,0.00,,,0.00,Wunderground v.1.15,2013-10-09 01:56:00,
2013-10-08 21:01:00,64.5,46.5,29.84,SSE,153,12.0,20.0,52,0.00,,,0.00,Wunderground v.1.15,2013-10-09 02:01:00,
2013-10-08 21:07:00,64.4,46.9,29.84,SSE,157,16.0,16.0,53,0.00,,,0.00,Wunderground v.1.15,2013-10-09 02:07:00,
2013-10-08 21:12:00,64.3,46.8,29.84,South,171,16.0,20.0,53,0.00,,,0.00,Wunderground v.1.15,2013-10-09 02:12:00,
2013-10-08 21:17:00,64.2,46.7,29.84,SSE,162,15.0,16.0,53,0.00,,,0.00,Wunderground v.1.15,2013-10-09 02:17:00,
2013-10-08 21:22:00,63.9,46.4,29.84,South,171,7.0,18.0,53,0.00,,,0.00,Wunderground v.1.15,2013-10-09 02:22:00,
2013-10-08 21:27:00,63.8,46.8,29.85,South,188,12.0,16.0,54,0.00,,,0.00,Wunderground v.1.15,2013-10-09 02:27:00,
2013-10-08 21:32:00,63.7,46.7,29.85,South,175,14.0,19.0,54,0.00,,,0.00,Wunderground v.1.15,2013-10-09 02:32:00,
2013-10-08 21:37:00,63.5,46.6,29.85,SSE,153,11.0,18.0,54,0.00,,,0.00,Wunderground v.1.15,2013-10-09 02:37:00,
2013-10-08 21:42:00,63.4,46.9,29.86,South,182,15.0,18.0,55,0.00,,,0.00,Wunderground v.1.15,2013-10-09 02:42:00,
2013-10-08 21:47:00,63.2,46.8,29.86,South,188,9.0,15.0,55,0.00,,,0.00,Wunderground v.1.15,2013-10-09 02:47:00,
2013-10-08 21:52:00,62.9,47.0,29.86,South,186,12.0,20.0,56,0.00,,,0.00,Wunderground v.1.15,2013-10-09 02:52:00,
2013-10-08 21:57:00,62.8,46.9,29.86,South,182,10.0,17.0,56,0.00,,,0.00,Wunderground v.1.15,2013-10-09 02:57:00,
2013-10-08 22:02:00,62.7,47.2,29.86,SSE,168,12.0,19.0,57,0.00,,,0.00,Wunderground v.1.15,2013-10-09 03:02:00,
2013-10-08 22:07:00,62.5,47.1,29.87,South,172,8.0,15.0,57,0.00,,,0.00,Wunderground v.1.15,2013-10-09 03:07:00,
2013-10-08 22:12:00,62.4,47.0,29.87,South,173,9.0,18.0,57,0.00,,,0.00,Wunderground v.1.15,2013-10-09 03:12:00,
2013-10-08 22:17:00,62.0,47.0,29.87,South,175,12.0,13.0,58,0.00,,,0.00,Wunderground v.1.15,2013-10-09 03:17:00,
2013-10-08 22:22:00,61.8,47.3,29.87,South,173,16.0,16.0,59,0.00,,,0.00,Wunderground v.1.15,2013-10-09 03:22:00,
2013-10-08 22:27:00,61.8,47.3,29.88,South,174,10.0,14.0,59,0.00,,,0.00,Wunderground v.1.15,2013-10-09 03:27:00,
2013-10-08 22:32:00,61.7,47.2,29.88,South,176,8.0,14.0,59,0.00,,,0.00,Wunderground v.1.15,2013-10-09 03:32:00,
2013-10-08 22:37:00,61.3,47.3,29.88,South,184,11.0,11.0,60,0.00,,,0.00,Wunderground v.1.15,2013-10-09 03:37:00,
2013-10-08 22:42:00,61.1,47.1,29.88,South,171,11.0,17.0,60,0.00,,,0.00,Wunderground v.1.15,2013-10-09 03:42:00,
2013-10-08 22:47:00,60.8,46.8,29.88,South,180,9.0,12.0,60,0.00,,,0.00,Wunderground v.1.15,2013-10-09 03:47:00,
2013-10-08 22:52:00,60.6,47.1,29.88,South,184,8.0,16.0,61,0.00,,,0.00,Wunderground v.1.15,2013-10-09 03:52:00,
2013-10-08 22:57:00,60.4,46.9,29.88,South,188,8.0,11.0,61,0.00,,,0.00,Wunderground v.1.15,2013-10-09 03:57:00,
2013-10-08 23:01:00,60.2,47.1,29.88,South,175,10.0,13.0,62,0.00,,,0.00,Wunderground v.1.15,2013-10-09 04:01:00,
2013-10-08 23:06:00,59.9,47.3,29.88,South,174,7.0,13.0,63,0.00,,,0.00,Wunderground v.1.15,2013-10-09 04:06:00,
2013-10-08 23:11:00,59.7,47.1,29.89,South,183,8.0,14.0,63,0.00,,,0.00,Wunderground v.1.15,2013-10-09 04:11:00,
2013-10-08 23:16:00,59.7,47.1,29.89,South,175,8.0,14.0,63,0.00,,,0.00,Wunderground v.1.15,2013-10-09 04:16:00,
2013-10-08 23:21:00,59.6,47.0,29.89,SSE,163,8.0,11.0,63,0.00,,,0.00,Wunderground v.1.15,2013-10-09 04:21:00,
2013-10-08 23:26:00,59.4,47.2,29.89,SSE,163,8.0,13.0,64,0.00,,,0.00,Wunderground v.1.15,2013-10-09 04:26:00,
2013-10-08 23:31:00,59.3,47.1,29.89,South,172,11.0,14.0,64,0.00,,,0.00,Wunderground v.1.15,2013-10-09 04:31:00,
2013-10-08 23:36:00,58.9,46.7,29.90,SSE,164,9.0,14.0,64,0.00,,,0.00,Wunderground v.1.15,2013-10-09 04:36:00,
2013-10-08 23:42:00,58.4,47.1,29.90,South,178,7.0,10.0,66,0.00,,,0.00,Wunderground v.1.15,2013-10-09 04:42:00,
2013-10-08 23:47:00,58.1,46.8,29.90,South,187,7.0,9.0,66,0.00,,,0.00,Wunderground v.1.15,2013-10-09 04:47:00,
2013-10-08 23:52:00,58.0,47.1,29.90,SSE,154,9.0,13.0,67,0.00,,,0.00,Wunderground v.1.15,2013-10-09 04:52:00,
2013-10-08 23:57:00,57.8,46.9,29.90,South,169,7.0,8.0,67,0.00,,,0.00,Wunderground v.1.15,2013-10-09 04:57:00,